Boulder City, NV

4:54 PM PDT on April 25, 2017 (GMT -0700)
Boulder City

Weather History for KBVU - August, 2014

Change the Weather History Date:

Tuesday, August 19, 2014

  Actual Average (KLAS) Record (KLAS)
Temperature  
Mean Temperature 82 °F -  
Max Temperature 86 °F 99 °F 111 °F (1992)
Min Temperature 77 °F 74 °F 60 °F (1938)
Cooling Degree Days 16    
Growing Degree Days 32 (Base 50)    
Moisture  
Dew Point 62 °F    
Average Humidity 53    
Maximum Humidity 69    
Minimum Humidity 35    
Precipitation  
Precipitation 0.00 in - - ()
Sea Level Pressure  
Sea Level Pressure 29.83 in    
Wind  
Wind Speed 11 mph (East)    
Max Wind Speed 28 mph    
Max Gust Speed 36 mph    
Visibility 10 miles    
Events Thunderstorm    
Averages and records for this station are not official NWS values.
T = Trace of Precipitation, MM = Missing Value Source: NWS Daily Summary

Daily Weather History Graph

Daily Weather History Graph

Search for Another Location

Airport or City:

Trip Planner

Search our weather history database for the weather conditions in past years. The results will help you decide how hot, cold, wet, or windy it might be!

Date:

Astronomy

Aug. 19, 2014 Rise Set
Actual Time 6:01 AM PDT 7:24 PM PDT
Civil Twilight 5:34 AM PDT 7:51 PM PDT
Nautical Twilight 5:02 AM PDT 8:23 PM PDT
Astronomical Twilight 4:28 AM PDT 8:56 PM PDT
Moon 12:59 AM PDT (8/19) 3:20 PM PDT (8/19)
Length of Visible Light 14h 16m
Length of Day
13h 23m
Waning Crescent, 28% of the Moon is Illuminated
Aug 19
Waning Crescent
Aug 25
New
Sep 2
First Quarter
Sep 8
Full
Sep 15
Last Quarter

Hourly Weather History & Observations

Time (PDT) Temp. Heat Index Dew Point Humidity Pressure Visibility Wind Dir Wind Speed Gust Speed Precip Events Conditions
12:15 AM 86.0 °F 85.4 °F 59.0 °F 40% 29.84 in 10.0 mi South 11.5 mph - N/A   Clear
12:35 AM 82.4 °F 83.9 °F 64.4 °F 54% 29.83 in 6.0 mi SSE 8.1 mph - N/A   Haze
12:55 AM 84.2 °F 85.0 °F 62.6 °F 48% 29.83 in 10.0 mi SSE 10.4 mph - N/A   Mostly Cloudy
1:15 AM 82.4 °F 82.9 °F 60.8 °F 48% 29.83 in 10.0 mi SSE 10.4 mph - N/A   Mostly Cloudy
1:35 AM 82.4 °F 82.9 °F 60.8 °F 48% 29.82 in 10.0 mi South 9.2 mph - N/A   Scattered Clouds
1:55 AM 80.6 °F 81.8 °F 62.6 °F 54% 29.82 in 10.0 mi South 6.9 mph - N/A   Mostly Cloudy
2:15 AM 82.4 °F 83.9 °F 64.4 °F 54% 29.82 in 10.0 mi South 8.1 mph - N/A   Overcast
2:35 AM 82.4 °F 83.9 °F 64.4 °F 54% 29.82 in 10.0 mi South 8.1 mph - N/A   Mostly Cloudy
2:55 AM 82.4 °F 83.9 °F 64.4 °F 54% 29.82 in 10.0 mi SSE 13.8 mph - N/A   Mostly Cloudy
3:15 AM 82.4 °F 84.6 °F 66.2 °F 58% 29.81 in 10.0 mi SSE 17.3 mph - N/A   Scattered Clouds
3:35 AM 82.4 °F 84.6 °F 66.2 °F 58% 29.82 in 10.0 mi SSE 18.4 mph - N/A   Clear
3:55 AM 78.8 °F - 66.2 °F 65% 29.82 in 10.0 mi SSE 27.6 mph 35.7 mph N/A   Partly Cloudy
4:15 AM 77.0 °F - 66.2 °F 69% 29.82 in 10.0 mi SSE 18.4 mph 27.6 mph N/A   Clear
4:35 AM 77.0 °F - 66.2 °F 69% 29.82 in 10.0 mi SSE 18.4 mph - N/A   Clear
4:55 AM 78.8 °F - 66.2 °F 65% 29.82 in 10.0 mi SSE 17.3 mph 23.0 mph N/A   Partly Cloudy
5:15 AM 77.0 °F - 66.2 °F 69% 29.83 in 10.0 mi SSW 8.1 mph 15.0 mph N/A   Scattered Clouds
5:35 AM 77.0 °F - 66.2 °F 69% 29.84 in 10.0 mi Variable 5.8 mph - N/A   Overcast
5:55 AM 77.0 °F - 66.2 °F 69% 29.83 in 10.0 mi WNW 5.8 mph 15.0 mph N/A   Overcast
6:15 AM 78.8 °F - 66.2 °F 65% 29.84 in 9.0 mi West 4.6 mph - N/A   Overcast
6:35 AM 78.8 °F - 66.2 °F 65% 29.84 in 10.0 mi SSE 5.8 mph 11.5 mph N/A   Overcast
6:55 AM 78.8 °F - 66.2 °F 65% 29.85 in 10.0 mi Variable 3.5 mph 12.7 mph N/A   Overcast
7:15 AM 78.8 °F - 66.2 °F 65% 29.85 in 10.0 mi SE 8.1 mph - N/A   Overcast
7:35 AM 78.8 °F - 66.2 °F 65% 29.86 in 10.0 mi SSE 6.9 mph - N/A   Mostly Cloudy
7:55 AM 80.6 °F 82.7 °F 66.2 °F 61% 29.86 in 10.0 mi East 5.8 mph - N/A   Mostly Cloudy
8:15 AM 80.6 °F 82.7 °F 66.2 °F 61% 29.87 in 10.0 mi ENE 8.1 mph - N/A   Mostly Cloudy
8:35 AM 78.8 °F - 68.0 °F 69% 29.87 in 10.0 mi NE 8.1 mph - N/A   Partly Cloudy
8:55 AM 78.8 °F - 68.0 °F 69% 29.88 in 10.0 mi ENE 10.4 mph - N/A   Clear
9:15 AM 78.8 °F - 68.0 °F 69% 29.88 in 10.0 mi NE 13.8 mph - N/A   Clear
9:35 AM 80.6 °F 83.2 °F 68.0 °F 65% 29.87 in 10.0 mi NNE 15.0 mph - N/A   Clear
9:55 AM 82.4 °F 85.4 °F 68.0 °F 62% 29.88 in 10.0 mi NNE 13.8 mph - N/A   Clear
10:15 AM 82.4 °F 85.4 °F 68.0 °F 62% 29.89 in 10.0 mi NE 12.7 mph - N/A   Partly Cloudy
10:35 AM 84.2 °F 86.6 °F 66.2 °F 55% 29.89 in - NNE 13.8 mph - N/A   Partly Cloudy
10:55 AM 84.2 °F 86.6 °F 66.2 °F 55% 29.88 in 10.0 mi NNE 15.0 mph - N/A   Partly Cloudy
11:15 AM 84.2 °F 86.6 °F 66.2 °F 55% 29.88 in 10.0 mi NNE 17.3 mph - N/A   Clear
11:35 AM 82.4 °F 84.6 °F 66.2 °F 58% 29.87 in 10.0 mi NE 18.4 mph - N/A   Clear
11:55 AM 80.6 °F 82.7 °F 66.2 °F 61% 29.87 in 10.0 mi NNE 17.3 mph - N/A   Clear
12:15 PM 82.4 °F 84.6 °F 66.2 °F 58% 29.86 in 10.0 mi NE 19.6 mph - N/A Thunderstorm Scattered Clouds
12:35 PM 84.2 °F 86.6 °F 66.2 °F 55% 29.85 in 10.0 mi NNE 18.4 mph - N/A   Partly Cloudy
12:55 PM 84.2 °F 86.6 °F 66.2 °F 55% 29.85 in 10.0 mi ENE 17.3 mph - N/A Thunderstorm Clear
1:15 PM 86.0 °F 87.3 °F 64.4 °F 48% 29.84 in 10.0 mi NE 16.1 mph - N/A   Clear
1:35 PM 86.0 °F 87.3 °F 64.4 °F 48% 29.84 in 10.0 mi ENE 11.5 mph - N/A   Clear
1:55 PM 84.2 °F 85.6 °F 64.4 °F 51% 29.83 in 10.0 mi NE 11.5 mph - N/A   Clear
2:15 PM 86.0 °F 87.3 °F 64.4 °F 48% 29.82 in 10.0 mi NNE 10.4 mph - N/A   Clear
2:35 PM 86.0 °F 87.3 °F 64.4 °F 48% 29.82 in 10.0 mi ESE 11.5 mph - N/A   Partly Cloudy
2:55 PM 86.0 °F 87.3 °F 64.4 °F 48% 29.82 in 10.0 mi SE 13.8 mph - N/A   Clear
3:35 PM 86.0 °F 85.4 °F 59.0 °F 40% 29.81 in 10.0 mi SE 15.0 mph - N/A   Clear
3:55 PM 84.2 °F 83.8 °F 59.0 °F 42% 29.81 in 10.0 mi ESE 18.4 mph - N/A   Clear
4:15 PM 84.2 °F 84.4 °F 60.8 °F 45% 29.80 in 10.0 mi ESE 12.7 mph - N/A   Clear
4:35 PM 84.2 °F 84.4 °F 60.8 °F 45% 29.79 in 10.0 mi SE 9.2 mph - N/A   Clear
4:55 PM 84.2 °F 84.4 °F 60.8 °F 45% 29.79 in 10.0 mi East 8.1 mph - N/A   Clear
5:15 PM 86.0 °F 84.9 °F 57.2 °F 37% 29.79 in 10.0 mi SSE 15.0 mph - N/A   Clear
5:35 PM 86.0 °F 84.5 °F 55.4 °F 35% 29.79 in 10.0 mi SE 11.5 mph 18.4 mph N/A   Clear
5:55 PM 84.2 °F 83.5 °F 57.2 °F 40% 29.78 in 10.0 mi ESE 9.2 mph 18.4 mph N/A   Clear
6:15 PM 82.4 °F 82.0 °F 57.2 °F 42% 29.78 in 10.0 mi ESE 12.7 mph - N/A   Clear
6:35 PM 80.6 °F 80.8 °F 57.2 °F 45% 29.78 in 10.0 mi East 11.5 mph - N/A   Clear
6:55 PM 80.6 °F 80.8 °F 57.2 °F 45% 29.77 in 10.0 mi East 11.5 mph - N/A   Clear
7:55 PM 78.8 °F - 57.2 °F 47% 29.77 in 10.0 mi ENE 9.2 mph - N/A   Clear
8:15 PM 78.8 °F - 57.2 °F 47% 29.77 in 10.0 mi ENE 9.2 mph - N/A   Clear
8:35 PM 78.8 °F - 55.4 °F 44% 29.78 in 10.0 mi East 11.5 mph - N/A   Clear
8:55 PM 78.8 °F - 55.4 °F 44% 29.79 in 10.0 mi ENE 9.2 mph - N/A   Clear
9:15 PM 78.8 °F - 55.4 °F 44% 29.80 in 10.0 mi ENE 9.2 mph - N/A   Clear
9:35 PM 78.8 °F - 55.4 °F 44% 29.80 in 10.0 mi NE 9.2 mph - N/A   Clear
9:55 PM 78.8 °F - 55.4 °F 44% 29.80 in 10.0 mi NE 9.2 mph - N/A   Clear
10:15 PM 78.8 °F - 55.4 °F 44% 29.81 in 10.0 mi ENE 9.2 mph - N/A   Clear
10:35 PM 78.8 °F - 55.4 °F 44% 29.82 in 10.0 mi NE 6.9 mph - N/A   Scattered Clouds
10:55 PM 78.8 °F - 55.4 °F 44% 29.82 in 10.0 mi NE 8.1 mph - N/A   Partly Cloudy
11:15 PM 78.8 °F - 55.4 °F 44% 29.83 in 10.0 mi NE 6.9 mph - N/A   Partly Cloudy
11:35 PM 78.8 °F - 53.6 °F 42% 29.83 in 10.0 mi ENE 6.9 mph - N/A   Clear
11:55 PM 78.8 °F - 55.4 °F 44% 29.84 in 10.0 mi East 8.1 mph - N/A   Clear